FLOCK 2P-11

Last updated on Wed Feb 14 2018 16:19:48 GMT+0000 (Coordinated Universal Time)

1 41608U 16040K 18045.41108076 .00002743 00000-0 11667-3 0 9995 2 41608 97.4290 111.0242 0009123 310.6700 49.3744 15.23846639 91519
UTC large
Height (km)
Speed (km/s)
/
Latitude / Longitude
Inclination (degrees)
Orbital Period (minutes)
Azimuth
Elevation
Range (km)
Doppler Factor

Next 0 passes for location: London (51.5072 / 0.1276)

Sorry there are no passes over London.